(462206) = 2007 VP126

Discovered at Mount Lemmon on 2007-09-10 by Mt. Lemmon Survey.

Orbit

Orbit type: Main Belt

Note: WebGL enabled browser required.

epoch2023-02-25.0
epoch JD2460000.5
perihelion date2022-08-04.51282
perihelion JD2459796.01282
argument of perihelion (°)3.70172
ascending node (°)41.97004
inclination (°)3.21566
eccentricity0.1924419
perihelion distance (AU)1.9303713
Tisserand w.r.t. Jupiter3.5
ΔV w.r.t. Earth (km/sec)8.7
semimajor axis (AU)2.3903807
mean anomaly (°)54.53425
mean daily motion (°/day)0.26668790
aphelion distance (AU)2.850
period (years)3.7
P-vector [x]0.69883593
P-vector [y]0.65480941
P-vector [z]0.28784193
Q-vector [x]-0.71429766
Q-vector [y]0.61776875
Q-vector [z]0.32884742
absolute magnitude17.84
phase slope0.15
uncertainty0
referenceMPEC 2023-B181
observations used234
oppositions7
arc length (days)5619
first opposition used2007
last opposition used2023
residual rms (arc-secs)0.67
perturbers coarse indicatorM-v
perturbers precise indicator003Ek
first observation date used2007-09-10.0
last observation date used2023-01-28.0
computer nameMPCLINUX
Minimum Orbit Intersection Distances (in AU)
for orbit epoch: 2460000.5, reference: E2023-BI1
Mercury1.61137
Venus1.20807
Earth0.93823
Mars0.43769
Jupiter2.54023
Saturn6.85538
Uranus15.7618
Neptune27.7839

Observations

240 total observations over interval: 2007 09 10.41251 – 2023 01 28.244659
These data are available for download (format description).

Date (UT) J2000 RA J2000 Dec Magn Location Ref
2007 09 10.41251 03 44 32.46 +18 43 27.4 21.0 V G96 – Mt. Lemmon Survey MPS 229196
2007 09 10.41852 03 44 32.85 +18 43 29.4 21.1 V G96 – Mt. Lemmon Survey MPS 229196
2007 09 10.42448 03 44 33.21 +18 43 31.2 21.0 V G96 – Mt. Lemmon Survey MPS 229196
2007 09 10.43046 03 44 33.57 +18 43 32.9 20.8 V G96 – Mt. Lemmon Survey MPS 229196
2007 09 18.42365 03 52 02.42 +19 19 22.6 20.6 V G96 – Mt. Lemmon Survey MPS 229196
2007 09 18.42906 03 52 02.67 +19 19 23.7 20.4 V G96 – Mt. Lemmon Survey MPS 229196
2007 09 18.43450 03 52 02.92 +19 19 25.0 20.6 V G96 – Mt. Lemmon Survey MPS 229196
2007 09 18.44002 03 52 03.18 +19 19 26.6 20.5 V G96 – Mt. Lemmon Survey MPS 229196
2007 10 17.42554 04 01 36.87 +20 48 51.0 20.0 V G96 – Mt. Lemmon Survey MPS 229196
2007 10 17.43211 04 01 36.73 +20 48 51.5 20.2 V G96 – Mt. Lemmon Survey MPS 229196
2007 10 17.43870 04 01 36.66 +20 48 52.4 20.1 V G96 – Mt. Lemmon Survey MPS 229196
2007 10 17.44532 04 01 36.51 +20 48 53.1 20.1 V G96 – Mt. Lemmon Survey MPS 229196
2007 11 07.21851 03 49 13.64 +21 10 40.3 19.8 V 691 – Steward Observatory, Kitt Peak-Spacewatch MPS 227111
2007 11 07.24314 03 49 12.24 +21 10 40.9 19.6 V 691 – Steward Observatory, Kitt Peak-Spacewatch MPS 227111
2007 11 07.26085 03 49 11.22 +21 10 40.9 19.8 V 691 – Steward Observatory, Kitt Peak-Spacewatch MPS 227111
2007 11 07.75808 03 48 43.30 +21 10 41.3 19.8 R 300 – Bisei Spaceguard Center-BATTeRS MPS 227111
2007 11 07.76640 03 48 42.79 +21 10 41.7 19.6 R 300 – Bisei Spaceguard Center-BATTeRS MPS 227111
2007 11 07.76919 03 48 42.58 +21 10 42.1 19.6 R 300 – Bisei Spaceguard Center-BATTeRS MPS 227111
2007 11 11.64558 03 44 59.83 +21 10 17.4 19.5 R 300 – Bisei Spaceguard Center-BATTeRS MPS 227111
2007 11 11.64859 03 44 59.57 +21 10 16.8 19.3 R 300 – Bisei Spaceguard Center-BATTeRS MPS 227111
2007 11 11.65160 03 44 59.44 +21 10 16.9 19.1 R 300 – Bisei Spaceguard Center-BATTeRS MPS 227111
2007 11 11.65460 03 44 59.22 +21 10 16.8 19.6 R 300 – Bisei Spaceguard Center-BATTeRS MPS 227111
2007 11 11.65761 03 44 59.02 +21 10 17.2 19.5 R 300 – Bisei Spaceguard Center-BATTeRS MPS 227111
2007 11 11.66063 03 44 58.87 +21 10 16.4 19.3 R 300 – Bisei Spaceguard Center-BATTeRS MPS 227111
2007 11 13.27385 03 43 22.14 +21 09 43.1 19.5 r 699 – Lowell Observatory-LONEOS MPS 227111
2007 11 13.29946 03 43 20.50 +21 09 44.3 20.1 r 699 – Lowell Observatory-LONEOS MPS 227111
2007 11 13.32509 03 43 18.81 +21 09 43.2 19.4 r 699 – Lowell Observatory-LONEOS MPS 227111
2007 11 13.35071 03 43 17.16 +21 09 41.1 19.3 r 699 – Lowell Observatory-LONEOS MPS 227111
2007 11 15.26260 03 41 20.40 +21 08 47.7 19.7   704 – Lincoln Laboratory ETS, New Mexico MPS 228373
2007 11 15.27540 03 41 19.57 +21 08 47.7 19.8   704 – Lincoln Laboratory ETS, New Mexico MPS 228373
2007 11 15.28814 03 41 18.76 +21 08 47.7 19.5   704 – Lincoln Laboratory ETS, New Mexico MPS 228373
2007 11 15.30104 03 41 17.91 +21 08 47.7 19.8   704 – Lincoln Laboratory ETS, New Mexico MPS 228373
2007 11 15.31374 03 41 17.14 +21 08 47.4 19.9   704 – Lincoln Laboratory ETS, New Mexico MPS 228373
2007 11 18.18319 03 38 19.40 +21 06 57.4   691 – Steward Observatory, Kitt Peak-Spacewatch MPS 229196
2007 11 18.20523 03 38 17.96 +21 06 56.9   691 – Steward Observatory, Kitt Peak-Spacewatch MPS 229196
2007 11 18.22038 03 38 16.97 +21 06 56.3   691 – Steward Observatory, Kitt Peak-Spacewatch MPS 229196
2007 12 03.31191 03 23 36.81 +20 52 34.6 19.5 V 703 – Catalina Sky Survey MPS 229948
2007 12 03.32057 03 23 36.31 +20 52 33.6 19.2 V 703 – Catalina Sky Survey MPS 229948
2007 12 03.32920 03 23 35.88 +20 52 33.5 19.4 V 703 – Catalina Sky Survey MPS 229948
2007 12 03.33782 03 23 35.44 +20 52 33.8 19.5 V 703 – Catalina Sky Survey MPS 229948
2011 12 27.42799 08 36 08.35 +24 02 05.5 20.5 V 691 – Steward Observatory, Kitt Peak-Spacewatch MPS 444918
2011 12 27.44580 08 36 07.57 +24 02 10.2 20.8 V 691 – Steward Observatory, Kitt Peak-Spacewatch MPS 444918
2011 12 27.46708 08 36 06.64 +24 02 16.0 20.6 V 691 – Steward Observatory, Kitt Peak-Spacewatch MPS 444918
2011 12 31.41796 08 33 05.43 +24 20 31.0 20.5 V 691 – Steward Observatory, Kitt Peak-Spacewatch MPS 405975
2011 12 31.43324 08 33 04.62 +24 20 34.8 20.3 V 691 – Steward Observatory, Kitt Peak-Spacewatch MPS 405975
2011 12 31.44852 08 33 03.81 +24 20 39.0 20.6 V 691 – Steward Observatory, Kitt Peak-Spacewatch MPS 405975
2012 01 20.13839 08 12 42.26 +25 47 31.0 19.3 R H15 – ISON-NM Observatory, Mayhill MPS 407749
2012 01 20.16769 08 12 40.15 +25 47 37.6 19.4 R H15 – ISON-NM Observatory, Mayhill MPS 407749
2012 01 20.18373 08 12 39.00 +25 47 41.4 19.4 R H15 – ISON-NM Observatory, Mayhill MPS 407749
2012 01 20.21219 08 12 37.15 +25 47 49.7 18.9 V 703 – Catalina Sky Survey MPS 407749
2012 01 20.21666 08 12 36.68 +25 47 48.4 19.6 V 703 – Catalina Sky Survey MPS 407749
2012 01 20.22118 08 12 36.36 +25 47 49.9 20.0 V 703 – Catalina Sky Survey MPS 407749
2012 01 20.22575 08 12 36.03 +25 47 50.2 20.7 V 703 – Catalina Sky Survey MPS 407749
2012 01 20.45302 08 12 19.87 +25 48 39.6 20.2 V G96 – Mt. Lemmon Survey MPS 408836
2012 01 20.46112 08 12 19.26 +25 48 40.5 20.0 V G96 – Mt. Lemmon Survey MPS 408836
2012 01 20.46910 08 12 18.72 +25 48 42.7 20.2 V G96 – Mt. Lemmon Survey MPS 408836
2012 01 20.47716 08 12 18.14 +25 48 44.6 20.0 V G96 – Mt. Lemmon Survey MPS 408836
2012 01 25.48717 08 06 38.618 +26 05 15.84 20.5 r F51 – Pan-STARRS 1, Haleakala MPS 408836
2012 01 25.52930 08 06 35.688 +26 05 22.79 20.6 r F51 – Pan-STARRS 1, Haleakala MPS 408836
2012 01 25.54256 08 06 34.779 +26 05 25.06 20.2 i F51 – Pan-STARRS 1, Haleakala MPS 408836
2012 01 25.55514 08 06 33.907 +26 05 27.10 20.3 i F51 – Pan-STARRS 1, Haleakala MPS 408836
2012 02 11.20464 07 50 44.12 +26 33 28.5 20.6 V G96 – Mt. Lemmon Survey MPS 411589
2012 02 11.21324 07 50 43.69 +26 33 28.8 20.5 V G96 – Mt. Lemmon Survey MPS 411589
2012 02 11.22201 07 50 43.29 +26 33 28.8 20.8 V G96 – Mt. Lemmon Survey MPS 411589
2012 02 11.23071 07 50 42.90 +26 33 29.4 20.6 V G96 – Mt. Lemmon Survey MPS 411589
2014 07 25.52720 22 45 44.310 -13 34 03.09 21.1 w F51 – Pan-STARRS 1, Haleakala MPS 523722
2014 07 25.53931 22 45 44.057 -13 34 05.51 21.0 w F51 – Pan-STARRS 1, Haleakala MPS 523722
2014 07 25.55142 22 45 43.800 -13 34 08.08 21.0 w F51 – Pan-STARRS 1, Haleakala MPS 523722
2014 07 25.56354 22 45 43.548 -13 34 10.44 21.0 w F51 – Pan-STARRS 1, Haleakala MPS 523722
2014 08 04.47130 22 41 16.422 -14 14 08.70 20.7 w F51 – Pan-STARRS 1, Haleakala MPS 525553
2014 08 04.48468 22 41 15.906 -14 14 12.27 20.7 w F51 – Pan-STARRS 1, Haleakala MPS 525553
2014 08 04.49804 22 41 15.399 -14 14 15.96 20.7 w F51 – Pan-STARRS 1, Haleakala MPS 525554
2014 08 04.51141 22 41 14.883 -14 14 19.58 20.8 w F51 – Pan-STARRS 1, Haleakala MPS 525554
2014 08 20.44245 22 28 54.600 -15 35 15.70 20.1 w F51 – Pan-STARRS 1, Haleakala MPS 527074
2014 08 20.45529 22 28 53.849 -15 35 19.71 20.3 w F51 – Pan-STARRS 1, Haleakala MPS 527074
2014 08 20.46819 22 28 53.097 -15 35 23.76 20.3 w F51 – Pan-STARRS 1, Haleakala MPS 527074
2014 09 18.37993 22 02 39.236 -17 24 03.39 20.6 w F51 – Pan-STARRS 1, Haleakala MPS 531501
2014 09 18.40232 22 02 38.232 -17 24 05.33 20.6 w F51 – Pan-STARRS 1, Haleakala MPS 531501
2014 09 18.41349 22 02 37.734 -17 24 06.21 20.6 w F51 – Pan-STARRS 1, Haleakala MPS 531501
2014 09 20.32611 22 01 20.723 -17 26 29.35 20.7 w F51 – Pan-STARRS 1, Haleakala MPS 533246
2014 09 20.33735 22 01 20.249 -17 26 30.08 20.7 w F51 – Pan-STARRS 1, Haleakala MPS 533246
2014 09 20.34856 22 01 19.786 -17 26 30.88 20.7 w F51 – Pan-STARRS 1, Haleakala MPS 533246
2014 09 20.36244 22 01 19.202 -17 26 31.66 20.7 w F51 – Pan-STARRS 1, Haleakala MPS 533246
2014 09 24.25291 21 59 01.46 -17 29 06.3 20.3 V G96 – Mt. Lemmon Survey MPS 533246
2014 09 24.25949 21 59 01.24 -17 29 06.3 20.0 V G96 – Mt. Lemmon Survey MPS 533246
2014 09 24.26608 21 59 01.00 -17 29 06.4 20.1 V G96 – Mt. Lemmon Survey MPS 533246
2014 09 24.27267 21 59 00.80 -17 29 06.8 20.0 V G96 – Mt. Lemmon Survey MPS 533246
2014 11 10.22105 22 10 15.207 -14 22 23.40 21.3 w F51 – Pan-STARRS 1, Haleakala MPS 544834
2014 11 10.23332 22 10 15.859 -14 22 17.82 21.1 w F51 – Pan-STARRS 1, Haleakala MPS 544834
2014 11 10.24563 22 10 16.519 -14 22 12.30 21.2 w F51 – Pan-STARRS 1, Haleakala MPS 544834
2016 02 04.44794 11 19 27.556 +09 25 42.58 21.6 w F51 – Pan-STARRS 1, Haleakala MPS 675282
2016 02 04.46026 11 19 27.080 +09 25 46.42 21.6 w F51 – Pan-STARRS 1, Haleakala MPS 675282
